Torna al catalogo

DELTA 1 DEB

AttivoLEO
NORAD 10730·DEBRIS·🇺🇸 United States

Lanciato Apr 9, 1975 da Vandenberg Space Force Base

Loading…

Prossimi Passaggi (prossime 24 ore)

TLE

AggiornatoSource: Space-Track

Epoca: Sep 14, 2026, 10:25 UTC

1 10730U 75027E   26257.43441536 -.00000032  00000-0  94082-4 0  9997
2 10730 114.9875 242.5296 0114578 246.2597 112.6415 13.94798808616616

Traccia DELTA 1 DEB in tempo reale con AllMySat

Download on the App Store